Theta_e
334 332 325 323 311 308 300 301 309 307 308 313 314 313 310 314 311 308 332 338 343 343 345 345 345 345 345 345 346 347 347 345 344 343 341 341 340 339 339 339 342 340 337 337 337 336 336 334 334
332 325 324 318 307 302 300 306 305 308 314 316 317 316 313 311 323 326 330 339 344 344 344 343 341 344 344 343 344 345 347 345 342 341 340 339 339 337 336 337 340 339 336 335 336 338 336 334 333
328 321 319 313 307 302 301 306 307 311 317 314 316 320 317 315 324 329 335 341 343 344 344 343 341 344 344 343 342 342 344 345 343 340 339 338 338 337 336 336 336 338 336 336 334 337 337 334 333
326 327 317 309 303 304 306 309 311 313 315 315 317 311 322 328 327 332 338 342 343 343 344 341 343 344 343 343 341 340 339 341 344 343 340 338 336 335 336 335 335 336 335 334 332 334 335 334 332
327 323 310 305 304 307 309 311 313 311 312 314 314 308 315 327 331 335 339 341 342 343 344 343 342 343 343 342 340 342 339 339 345 344 342 340 338 336 335 335 335 334 334 333 333 335 335 333 333
318 319 307 303 304 308 309 312 313 311 313 314 313 310 315 329 332 336 340 340 342 342 343 343 336 339 341 341 341 341 340 338 343 343 343 341 340 338 336 336 334 333 331 333 333 335 333 332 332
314 313 308 306 305 306 308 314 311 311 312 313 316 309 317 326 333 337 338 341 341 342 342 342 342 338 335 337 337 337 339 338 337 339 340 338 338 338 337 337 337 334 332 332 333 334 332 330 330
319 315 308 308 305 305 309 312 313 313 311 318 320 312 311 324 333 335 336 338 339 338 342 342 342 340 338 338 331 333 335 335 335 334 333 332 333 334 333 332 335 337 336 335 334 333 332 330 328
317 308 304 307 307 309 310 310 312 314 315 316 319 318 322 329 332 331 330 331 332 335 339 341 341 340 339 338 332 329 330 330 330 331 328 327 333 333 333 330 332 336 336 336 335 334 333 332 328
310 305 306 310 313 312 311 311 311 312 313 315 318 323 325 329 330 327 328 327 328 330 334 338 340 339 339 337 337 337 335 335 335 334 334 334 333 333 331 327 327 330 331 333 335 334 333 329 329
309 301 306 309 312 313 310 309 312 311 311 315 316 321 324 326 329 329 329 330 331 333 333 334 336 339 340 338 338 337 336 336 336 336 336 334 333 333 333 333 332 332 323 331 332 333 332 330 329
303 306 307 310 309 310 310 312 310 310 313 314 316 321 325 324 326 327 328 329 331 333 334 335 334 334 337 339 338 337 335 335 335 336 336 335 333 332 331 331 332 333 333 332 332 331 331 331 330
305 306 309 309 309 309 309 308 310 312 315 316 320 321 323 324 325 327 329 331 332 331 333 335 336 333 334 335 338 338 337 335 336 336 336 335 333 332 332 331 331 331 331 331 331 331 330 330 330
306 306 306 308 308 308 306 306 307 310 315 315 315 320 323 324 325 326 327 327 329 331 333 335 336 336 335 333 334 337 337 337 337 336 336 335 334 333 332 331 330 330 330 330 329 329 328 328 329
307 302 305 306 307 306 307 302 303 310 311 312 314 316 317 321 325 325 327 328 329 330 331 331 335 337 336 335 333 334 337 337 336 336 337 336 335 334 333 332 331 330 330 330 329 328 328 327 327
302 302 295 302 305 306 305 295 301 307 308 307 309 312 312 314 316 322 326 328 329 329 329 331 330 333 336 336 335 332 334 336 336 336 337 336 335 335 333 332 331 332 331 330 328 327 326 325 325
299 292 294 296 304 303 303 299 305 306 307 307 308 309 310 310 312 314 315 316 317 321 324 326 330 330 332 335 336 336 336 333 336 336 336 336 335 335 334 333 332 333 331 330 329 328 327 325 325
290 291 293 293 298 300 300 300 304 307 305 305 307 308 308 308 310 313 315 316 317 318 319 322 324 327 329 332 334 335 333 333 333 335 335 335 335 334 334 333 333 332 331 330 329 328 328 326 325
295 294 292 295 299 297 296 296 299 302 303 303 304 305 306 307 310 312 314 316 317 317 317 317 319 323 326 327 328 330 329 330 330 331 333 334 334 334 333 332 332 330 327 329 328 325 323 323 322
295 293 292 296 297 297 296 295 299 301 301 302 302 303 304 306 308 310 312 314 314 315 316 316 316 319 323 325 327 329 330 331 332 333 331 331 333 333 331 330 330 328 326 326 326 324 320 320 321
295 293 292 291 295 297 294 291 294 297 299 300 302 303 304 305 306 307 308 309 312 312 313 313 314 315 319 324 326 327 329 330 329 330 331 332 332 332 330 329 329 327 326 324 325 324 320 318 320
289 295 294 293 290 286 293 283 291 294 295 297 299 301 302 302 303 304 304 305 307 309 310 310 311 313 316 322 323 324 323 323 326 327 329 330 331 331 331 330 330 326 326 324 324 324 322 320 317
290 296 294 293 290 289 288 286 289 292 292 295 298 298 300 301 301 302 303 304 303 305 309 312 312 311 314 320 323 323 323 324 326 325 325 327 328 330 330 330 330 328 325 325 324 323 322 321 319
298 295 294 293 291 282 286 285 286 290 292 293 296 300 299 300 301 301 301 303 304 307 308 310 310 311 318 320 321 321 321 322 322 323 323 325 326 326 328 328 329 328 326 324 324 324 323 322 320
296 290 283 281 281 280 286 285 289 294 295 295 297 299 300 301 301 302 303 304 305 306 307 306 306 304 306 308 310 314 316 319 321 320 320 320 321 323 324 325 325 325 326 325 325 324 323 322 321
292 290 283 276 278 281 285 282 288 295 297 298 298 299 300 301 301 302 302 302 302 302 303 304 303 301 302 304 304 305 306 307 308 306 307 308 308 310 312 316 321 322 323 323 324 323 323 323 321
291 287 290 283 281 280 284 287 292 296 295 295 296 296 298 301 301 302 300 300 299 299 298 300 300 299 299 300 302 303 303 303 303 304 306 306 307 306 307 309 310 311 315 319 320 321 321 321 321
293 294 284 287 277 276 282 283 285 290 292 294 296 297 297 298 299 302 300 298 298 297 297 297 297 297 297 298 299 299 299 300 301 302 302 302 303 304 304 305 306 308 310 312 315 317 319 319 319
289 288 289 288 286 279 277 283 292 292 293 294 296 297 298 298 298 300 298 297 296 296 296 296 296 296 296 297 297 298 298 297 298 298 298 298 299 300 301 302 303 304 306 309 311 314 315 316 316
293 289 289 283 280 284 283 283 293 295 295 296 297 297 299 299 300 301 298 296 296 295 294 294 294 294 294 295 295 295 295 296 296 296 296 297 297 298 298 299 299 301 302 304 305 307 310 313 315
Wind_Speed
16 6 1 3 3 2 4 5 1 5 5 3 4 2 1 3 4 5 4 5 13 14 13 13 9 10 10 9 8 9 10 10 10 10 10 10 11 10 10 9 9 10 11 10 11 12 11 11 11
12 2 1 1 3 2 6 4 7 4 4 7 5 3 2 4 3 5 11 6 15 13 13 12 11 10 10 10 8 8 9 10 9 9 9 9 9 9 9 8 8 9 8 10 8 9 10 9 9
6 3 1 1 1 3 5 6 7 5 7 2 3 2 1 3 3 11 6 13 14 13 11 11 10 10 9 9 7 6 6 10 12 10 9 8 8 8 9 7 7 6 8 9 9 8 9 8 8
5 2 3 1 6 4 3 7 5 8 4 3 1 4 3 3 5 4 12 16 15 12 12 13 11 10 9 7 5 4 4 3 11 13 9 8 7 7 6 7 6 5 7 7 7 7 7 7 7
2 1 2 4 4 2 1 4 8 7 2 3 3 4 4 4 3 8 13 14 14 13 11 12 10 11 10 9 7 5 4 4 8 10 10 8 8 6 4 4 5 5 4 5 6 6 6 5 5
1 2 3 4 4 3 4 4 5 2 1 3 3 4 4 5 7 8 12 14 14 12 11 11 10 8 9 9 7 6 6 4 7 9 9 11 9 9 6 6 4 3 2 4 4 6 3 3 2
1 2 3 5 5 4 4 6 4 3 3 3 1 2 4 7 6 9 9 12 12 12 11 10 11 11 9 9 8 7 6 5 4 4 9 8 10 9 10 8 7 6 4 3 3 5 2 1 2
1 1 5 3 7 5 5 6 1 5 3 3 1 1 4 7 9 9 9 10 10 10 11 10 10 11 10 10 7 7 7 6 6 4 7 7 6 6 8 7 8 7 9 8 5 4 3 2 1
1 4 6 7 7 6 7 7 3 1 4 3 3 1 4 9 11 10 9 9 8 8 10 11 10 10 10 9 9 7 7 6 6 7 4 4 6 7 8 7 6 8 7 7 8 8 7 5 4
4 5 7 2 5 6 8 7 9 6 6 6 5 4 6 11 12 12 11 12 11 11 12 11 11 11 10 8 9 10 9 9 9 9 9 8 7 6 5 3 6 6 6 7 7 7 5 6 6
2 5 3 3 1 1 6 6 4 6 7 7 9 9 10 12 12 13 12 13 14 13 11 12 12 11 11 9 7 6 6 6 7 10 9 8 6 6 6 5 6 7 8 7 8 8 7 7 6
4 2 1 3 2 2 4 3 4 7 1 2 3 4 11 13 14 13 13 12 12 13 14 13 13 12 12 8 8 8 7 8 7 9 11 8 6 7 8 6 7 7 6 8 7 6 7 8 8
4 2 3 1 1 1 0 3 2 8 5 3 2 6 10 11 11 10 10 10 11 12 12 13 13 13 11 11 9 9 9 9 9 9 10 9 9 8 8 8 7 7 7 7 8 8 8 9 9
1 2 1 0 2 2 4 2 2 4 6 8 5 5 6 9 11 9 10 12 13 13 13 12 13 14 13 12 12 10 9 10 10 10 10 13 10 9 9 8 9 9 8 8 8 9 8 9 9
2 3 1 5 2 2 1 8 14 10 2 6 10 9 8 10 10 13 12 12 12 11 11 13 14 14 14 14 12 10 10 10 10 11 14 14 13 13 11 9 9 9 9 11 9 10 9 9 9
3 1 4 5 4 1 5 13 3 2 9 14 12 10 10 12 13 13 12 12 11 11 12 12 11 14 16 14 11 9 10 10 10 11 10 15 15 15 12 10 10 10 9 8 9 9 9 10 10
3 5 10 5 3 2 9 5 3 3 3 8 6 7 9 12 14 14 14 13 13 13 13 13 13 15 15 15 12 12 12 10 10 10 10 14 15 15 13 11 11 11 9 10 10 10 10 10 10
8 7 4 6 2 1 7 11 15 11 10 13 15 16 15 16 20 16 13 12 11 11 11 11 10 13 14 11 10 9 9 10 10 10 11 14 12 14 13 12 12 11 10 10 10 12 10 11 10
5 5 7 2 2 3 9 14 16 18 13 16 17 18 20 21 21 16 13 12 12 12 12 13 12 12 9 9 10 10 10 10 10 8 13 14 13 14 14 11 11 11 11 12 12 11 12 8 6
4 5 5 5 3 3 11 17 18 21 22 20 22 23 21 18 19 16 14 13 11 12 11 13 13 12 10 9 8 8 7 9 10 10 12 14 14 13 12 13 12 11 9 13 12 10 6 7 6
12 11 7 7 4 9 9 17 16 10 11 12 18 19 16 16 17 14 12 13 11 12 12 12 13 13 12 12 8 7 5 5 6 8 8 10 12 12 13 14 12 12 10 9 10 10 12 9 7
11 6 8 8 5 6 5 8 7 10 14 14 15 12 9 10 11 11 11 10 9 9 7 9 9 9 8 11 10 12 8 8 6 6 5 6 9 11 12 13 13 11 8 10 10 9 10 10 10
4 6 6 6 6 7 5 7 3 4 10 12 4 2 4 5 4 6 6 4 0 0 1 2 3 3 6 9 11 8 10 7 6 4 6 6 7 9 10 11 11 12 9 12 13 10 11 9 9
9 8 5 3 3 7 7 8 4 6 5 1 3 4 3 8 3 2 3 4 6 5 6 6 7 7 4 4 7 8 8 8 6 6 6 5 5 6 8 10 10 12 11 12 12 11 12 11 10
10 9 2 3 5 6 3 8 7 11 9 7 7 6 6 6 3 2 4 5 6 6 6 7 7 8 7 7 6 4 1 2 4 4 4 5 4 4 5 7 9 9 10 10 10 10 10 11 10
15 10 4 6 5 2 3 9 4 8 6 6 6 8 7 7 4 3 3 5 5 5 6 6 6 7 7 6 6 5 5 3 2 3 3 3 4 5 7 8 9 11 12 11 11 9 9 10 10
13 10 2 3 2 3 5 5 12 10 8 7 6 5 4 7 6 5 3 3 4 5 5 5 5 6 7 6 5 6 5 5 4 5 5 4 5 5 7 8 8 9 11 11 12 10 12 12 14
6 11 5 4 5 7 5 5 8 5 7 0 3 4 2 4 7 7 5 4 3 4 4 5 5 5 5 5 5 4 5 5 5 4 5 5 5 6 7 8 8 9 9 10 10 9 9 10 10
8 7 5 4 6 3 4 2 3 5 2 2 1 4 3 6 9 8 5 4 2 3 3 4 4 5 5 5 5 5 5 5 5 4 5 6 6 7 7 8 9 9 9 10 10 11 12 12 12
15 10 14 6 5 7 7 9 5 6 7 3 8 3 6 6 9 9 7 6 5 4 3 2 3 4 4 4 5 5 5 5 5 5 6 6 6 6 7 8 9 9 10 10 10 11 12 13 12
Wind_Direction
326 341 193 221 225 115 117 142 13 148 172 108 115 228 359 12 347 34 135 109 144 146 141 149 134 140 138 139 131 128 124 128 129 127 125 131 123 123 121 110 102 113 94 89 96 98 89 84 86
322 304 189 130 257 167 108 145 178 131 84 121 125 142 183 78 61 97 144 154 151 150 150 149 138 142 144 144 140 136 152 137 134 130 126 128 124 123 118 112 115 106 102 93 98 106 100 88 82
321 326 288 48 68 86 115 181 144 132 143 161 143 346 43 75 99 142 120 153 154 155 152 130 141 144 147 152 149 138 125 155 145 141 137 133 132 131 128 118 131 109 107 90 87 77 89 88 82
326 175 132 344 88 62 40 149 144 145 192 246 263 127 132 29 128 126 145 154 158 156 157 140 145 148 148 140 141 153 112 145 158 147 145 145 142 147 123 135 138 139 118 105 87 85 92 90 86
341 261 89 97 85 72 71 126 156 160 148 159 208 123 108 127 114 131 148 160 158 162 161 159 158 157 155 159 158 162 156 71 162 148 145 141 130 123 135 142 150 160 146 97 103 77 64 76 94
345 294 163 146 111 94 118 153 168 177 143 136 223 145 102 120 154 150 156 165 158 167 167 160 163 159 163 167 176 168 177 154 137 154 159 150 158 152 170 152 156 180 163 151 118 111 83 48 10
38 319 101 135 131 149 140 161 188 176 166 152 65 181 98 171 139 150 165 170 164 173 173 175 176 175 172 176 174 177 183 197 164 139 170 155 164 173 166 174 167 169 185 219 156 127 128 68 25
159 215 154 170 170 148 152 177 175 195 154 103 210 146 135 142 143 151 155 178 164 190 184 185 185 184 185 184 189 188 186 191 211 207 180 172 180 191 184 179 191 190 185 185 171 164 197 210 116
280 211 190 174 178 153 156 183 161 110 160 188 171 334 66 131 137 150 159 174 180 194 196 194 193 193 192 192 188 198 201 205 216 216 204 169 221 201 198 200 180 208 201 194 187 195 204 199 192
231 226 206 165 178 170 170 194 159 185 184 195 183 146 135 153 161 169 180 185 195 199 202 201 201 201 199 197 198 205 202 208 211 214 216 219 221 224 249 247 216 227 215 215 211 217 219 220 240
166 234 172 154 185 186 155 180 177 200 203 212 210 172 162 174 182 186 196 197 198 200 204 207 207 211 206 205 205 205 207 210 214 217 218 223 229 222 222 227 216 226 208 234 214 214 231 248 261
202 192 203 115 90 186 173 138 196 224 172 335 212 161 171 188 192 198 203 207 204 205 205 203 209 210 213 212 210 211 212 211 215 217 216 219 223 224 230 230 230 232 234 239 243 247 252 248 250
216 150 192 63 148 120 147 198 273 243 206 170 129 184 188 197 207 207 211 215 219 223 216 210 202 212 212 216 220 219 218 215 222 221 217 219 225 228 230 234 233 233 235 239 244 250 253 250 255
89 181 99 353 221 255 253 208 238 226 220 215 208 195 211 214 212 214 220 222 217 222 223 221 216 211 213 214 220 222 221 223 223 224 224 220 226 228 228 230 233 237 235 237 240 247 250 254 256
102 164 168 226 216 248 215 237 238 248 197 228 234 241 250 247 239 229 231 232 235 231 229 226 222 218 216 218 221 223 229 224 222 225 226 224 222 229 231 233 236 236 236 241 243 247 250 255 254
166 290 233 154 199 185 210 251 175 208 238 249 243 252 253 257 258 250 245 246 249 246 239 232 223 223 222 224 219 225 226 230 227 228 227 226 227 227 227 235 237 239 237 238 242 243 245 248 253
201 222 222 249 186 177 212 245 208 71 233 257 254 252 265 274 266 258 257 257 253 247 248 242 232 230 225 226 225 224 224 227 236 231 229 228 229 228 229 233 238 238 238 237 238 243 246 251 250
192 211 224 228 101 221 238 248 271 269 258 269 275 276 273 269 265 267 259 247 254 244 244 245 239 233 231 230 229 230 230 232 231 237 234 231 228 229 230 236 237 236 237 240 240 244 244 248 258
165 188 209 227 25 315 263 271 271 275 276 272 268 261 259 256 263 265 261 254 246 243 242 239 236 233 219 214 221 225 222 229 236 231 240 240 233 230 231 238 241 234 233 241 244 246 246 248 237
159 157 202 267 284 268 283 276 269 270 266 262 264 262 259 264 263 261 260 254 246 249 242 245 239 239 220 216 213 222 217 229 229 225 228 234 240 235 238 235 239 230 226 239 241 223 223 232 203
217 230 226 263 280 264 289 266 255 252 254 252 254 261 266 264 272 277 268 260 252 240 238 240 243 244 233 224 215 218 227 235 233 232 238 232 233 237 238 238 241 241 232 234 235 227 218 233 216
218 213 223 245 280 267 355 295 245 275 280 256 258 261 276 274 265 267 264 264 247 247 253 252 250 248 238 225 216 219 222 231 233 242 238 238 228 235 232 237 241 241 236 232 236 231 227 222 233
206 187 200 222 243 294 197 248 278 250 260 266 291 71 63 4 284 278 288 280 35 297 188 227 231 221 222 216 222 223 236 254 270 261 268 257 252 244 246 245 247 249 244 247 245 240 232 228 235
146 139 128 183 239 249 220 230 191 216 213 107 124 130 344 340 354 30 62 84 75 74 77 81 95 80 83 185 206 221 237 248 261 267 276 274 270 265 254 255 253 255 254 250 252 244 238 231 233
181 168 153 216 209 258 121 218 294 254 241 258 304 312 326 307 293 116 110 94 75 70 69 72 79 74 70 81 85 100 159 248 261 287 292 303 292 288 284 274 268 263 258 256 258 256 248 241 237
192 187 216 234 216 318 158 239 253 288 312 277 277 288 289 270 222 183 133 117 97 69 59 71 72 68 54 58 65 61 51 49 41 9 336 316 315 320 324 312 290 277 271 259 254 253 249 247 241
179 212 100 95 126 268 214 238 280 274 275 260 281 301 260 242 202 192 176 133 103 78 54 51 67 63 49 43 44 44 36 30 16 4 352 345 333 331 324 315 306 296 283 270 268 264 260 255 252
197 157 183 220 226 238 226 249 237 176 156 95 69 14 271 251 201 199 196 160 115 92 79 69 67 71 58 54 47 47 41 29 19 16 10 352 339 334 328 327 319 310 303 297 285 282 278 265 260
169 185 210 227 221 271 307 240 212 253 263 113 35 4 308 230 204 201 194 180 159 117 111 111 98 86 74 61 51 45 38 29 24 20 8 356 342 346 342 339 331 328 326 324 310 292 273 265 266
216 217 205 208 186 238 275 251 171 190 159 302 271 229 314 251 211 200 193 203 199 193 171 102 84 81 63 57 58 49 39 30 26 14 2 355 353 349 348 340 338 335 332 327 315 306 295 292 282